Regional Weather Roundup
Issued by NWS Memphis, TN

Home | Current Version | Previous Version | Text Only | Print | Product List | Glossary On
Versions: 1 2 3 4 5 6 7 8 9 10 11 12 13 14 15 16 17 18 19 20 21 22 23 24 25 26 27 28 29 30 31 32 33 34 35 36 37 38 39 40 41 42 43 44 45 46 47 48 49 50
000
ASUS44 KMEG 201410
RWRMEG
MEMPHIS CWA HOURLY WEATHER ROUNDUP
NATIONAL WEATHER SERVICE MEMPHIS TN
900 AM CDT FRI OCT 20 2017

...WEST TENNESSEE...

CITY           SKY/WX    TMP DP  RH WIND       PRES   REMARKS
MEMPHIS INTL   PTSUNNY   61  54  77 E5        30.25R
NWS MEMPHIS      N/A     53 N/A N/A MISG        N/A
JACKSON        CLOUDY    54  51  90 E3        30.28R
COVINGTON      SUNNY     54  52  94 SE5       30.27R
SOMERVILLE     SUNNY     55  54  94 CALM      30.26R
BOLIVAR        SUNNY     54  50  87 CALM      30.28R
LEXINGTON      SUNNY     52  48  87 CALM      30.29R
SELMER         SUNNY     55  52  88 CALM      30.28R
SAVANNAH       SUNNY     52  48  87 CALM      30.28R
UNION CITY     SUNNY     54  52  94 CALM      30.27R
PARIS          SUNNY     55  52  88 CALM      30.28R
HUNTINGDON     SUNNY     54  50  87 E5        30.28R


...EASTERN ARKANSAS...

CITY           SKY/WX    TMP DP  RH WIND       PRES   REMARKS
JONESBORO      PTSUNNY   55  54  96 E6        30.24R
WEST MEMPHIS   CLOUDY    59  56  89 SE6       30.23S
BATESVILLE     CLOUDY    57  53  86 E3        30.23R
NEWPORT        CLOUDY    55  53  93 E3        30.24R
WALNUT RIDGE     N/A     52  50  93 MISG        N/A
BLYTHEVILLE    CLOUDY    59  56  89 SE5       30.27R
NW BLYTHEVILLE MOSUNNY   61  52  72 S3        30.26R
SEARCY         CLOUDY    53  53 100 CALM      30.23R
STUTTGART      CLOUDY    61  56  83 SE7       30.23R
PINE BLUFF     CLOUDY    59  54  83 SE5       30.22R
MONTICELLO     MOSUNNY   59  55  87 E3        30.22R


...NORTH MISSISSIPPI...

CITY           SKY/WX    TMP DP  RH WIND       PRES   REMARKS
TUPELO         CLOUDY    54  50  86 N3        30.28R
OXFORD         CLOUDY    57  54  88 SE6       30.28R
BATESVILLE     SUNNY     55  54  95 CALM      30.26R
OLIVE BRANCH   PTSUNNY  N/A N/A N/A CALM      30.25R
TUNICA           N/A    N/A N/A N/A CALM      30.26R
CLARKSDALE       N/A     61  61 100 SE5       30.25R
CORINTH        CLOUDY    50  50 100 CALM      30.28R
GREENWOOD      MOSUNNY   59  54  83 E5        30.24R
COLUMBUS       SUNNY     56  55  99 CALM      30.27R
STARKVILLE     MOSUNNY   54  54 100 CALM      30.28R
GOLDEN TRIANGL MOSUNNY   58  53  84 CALM      30.28R


...SOUTHEAST MISSOURI...

CITY           SKY/WX    TMP DP  RH WIND       PRES   REMARKS
KENNETT        CLOUDY    57  57 100 SE5       30.25R FOG
MALDEN         CLOUDY    55  52  88 CALM      30.27R
WEST PLAINS    CLOUDY    53  50  89 CALM      30.22S
POPLAR BLUFF   CLOUDY    53  51  93 CALM      30.25R
CAPE GIRARDEAU SUNNY     57  52  83 CALM      30.26R


...NORTHWEST ALABAMA...

CITY           SKY/WX    TMP DP  RH WIND       PRES   REMARKS
MUSCLE SHOALS  SUNNY     54  52  93 E3        30.30S


...MIDDLE TENNESSEE...

CITY           SKY/WX    TMP DP  RH WIND       PRES   REMARKS
NASHVILLE      MOSUNNY   57  49  74 CALM      30.32S
CLARKSVILLE    SUNNY     53  49  86 SE5       30.30R
COLUMBIA       SUNNY     48  46  93 CALM      30.30S


...WESTERN KENTUCKY...

CITY           SKY/WX    TMP DP  RH WIND       PRES   REMARKS
PADUCAH        SUNNY     60  52  74 CALM      30.26R
FORT CAMPBELL  SUNNY     55  49  81 SE3       30.30R


...CENTRAL ARKANSAS...

CITY           SKY/WX    TMP DP  RH WIND       PRES   REMARKS
LITTLE ROCK    CLOUDY    56  55  97 CALM      30.22R


SKY/WX REPORTED AS FAIR MEANS FEW OR NO CLOUDS BELOW
12 THOUSAND FEET.





USA.gov is the U.S. government's official web portal to all federal, state and local government web resources and services.